Weather in Grabtsevo

Russia / Kaluga Oblast     54°33′59″N   36°22′15″E
temp.,
°C
wind,
m/s
gust,
m/s
humid.,
%
clouds,
%
prec.,
mm/h
press.,
hPa
HPBL,
m
14 august, sun
sun1400:00+17e227023 0.0 102130
03:00+16e2272100 0.0 102028
06:00+16e237542 0.0 102061
09:00+22e3456100 0.0 1020311
12:00+26ese234648 0.0 1020996
15:00+28ese224316 0.0 10191754
18:00+26e245615 0.0 1018226
21:00+18se24840 0.3 101957
15 august, mon
mon1500:00+17ese127733 0.0 101912
03:00+19ene2368100 0.0 101954
06:00+19e266772 0.0 1019142
09:00+21e4106874 0.0 1019370
12:00+26e574728 0.0 10191196
15:00+28e564272 0.0 10181664
18:00+26e475225 0.0 1018434
21:00+22e4126620 0.0 1018263
16 august, tue
tue1600:00+20e41260100 0.0 1018276
03:00+19e5135898 0.0 1018322
06:00+18e41356100 0.0 1019348
09:00+22ese5125099 0.0 1019533
12:00+26ese693942 0.0 1019907
15:00+28ese683765 0.0 10181262
18:00+25e594590 0.0 1018621
21:00+20ene31063100 0.0 1018175
17 august, wed
wed1700:00+19ene41262100 0.0 1018243
03:00+18e41161100 0.0 1017224
06:00+17e3969100 0.0 1017198
09:00+20e3462100 0.0 1017192
12:00+22ene585789 0.0 1017285
15:00+27ese584585 0.0 1016890
18:00+25e4952100 0.0 1016435
21:00+20ene41062100 0.0 1016185
18 august, thu
thu1800:00+20e41356100 0.0 1016286
03:00+19e4135570 0.0 1016264
06:00+17e412602 0.0 1017235
09:00+23e511515 0.0 1017464
12:00+27e79385 0.0 10161273
15:00+28e78355 0.0 10161730
18:00+26ene510425 0.0 1016620
21:00+21ene413555 0.0 1016269